STARLINK-36809, 67929

Orbit data source: Space-Track

STARLINK-36809, 67929 is a payload satellite owned by SpaceX/Seattle (US) in LEO that was launched on Sun, 22 Feb 2026 UTC via an FALCON 9 launch vehicle from the Air Force Eastern Test Range (AFETR). Payload-class satellites include a variety of spacecraft equipped with specific instruments for various scientific and technological missions. These include communications satellites like Starlink; space stations such as the ISS; scientific satellites like the Hubble; Earth observation satellites from companies like Planet Labs, Umbra, and HawkEye 360; GPS; miniature CubeSats for education and research; and military/defense satellites.

Loading next visibility...
Identifier
67929, 2026-036AB
Orbit
LEO
Country
Flag of USUS
Related business
Manufacturer
SpaceX/Seattle
Mission
Operational Commercial Communications
Bus & Motor
STARLINK V2MO, Unknown motor
Mass
575 kg wet, ~530 kg dry
Launch date (UTC)
2026-02-22 (4 months ago)
Launch vehicle
FALCON 9
Launch site
Air Force Eastern Test Range (AFETR)
Object type
Payload
Rocket body
Debris
Shape & HBR
Box + 2 Pan, 17.7 m
Radar Cross Section
36.964 m², Large (>1 m²)

Expand to show TLE details & history
Last TLE update: 14 hours ago

TLE from 14 hours ago
0 STARLINK-36809
1 67929U 26036AB  26171.27929617  .00008097  00000-0  30338-3 0  9994
2 67929  43.0018  25.7287 0001015 291.9321  68.1423 15.27588016 19418
Epoch: 2026-06-20T06:42Z
TLE epoch observation values (Epoch: 2026-06-20T06:42:11.189Z)
Latitude
0.00002°
Longitude
16.6859°
Altitude
482.542 km
Speed
7.626 km/s
True Right ascension
01h 42m 54s
True Declination
0° 00' 00"
Sunlit
Object was in daylight at epoch
Visualization orbit readout
Latitude
Unknown
Longitude
Unknown
Altitude
Unknown
Speed
Unknown
Apparent Right ascension
Unknown
Apparent Declination
Unknown
Sunlit
N/A
Visualization observer readout
Local Sidereal Time
07:19:44
Azimuth
Unknown
Elevation
Unknown
Doppler factor
Unknown
Orbital elements
Apogee altitude
485.667 km
Perigee altitude
484.273 km
Semi-major axis
6,863.107 km
Eccentricity
0.0001
Inclination
43.0018°
RAAN
25.7287°
Arg. of periapsis
291.9321°
True anomaly
68.1531°
Mean anomaly
68.1423°
Eccentric anomaly
68.1477°
Mean motion
3.81735 °/min
Orbital period
94.31 mins
BSTAR
0.00030338
Loading maneuver chart data...
Computing Atmospheric mass density...
Loading historical data...
Loading historical data...
Loading historical data...
Loading historical data...
Loading historical data...
Loading historical data...
Loading historical data...

Documentation

Showing up to 5 results
|